Laconia, NH

6:18 AM EST on November 21, 2017 (GMT -0500)
Laconia Municipal

Weather History for KLCI - March, 2014

Change the Weather History Date:

Tuesday, March 4, 2014

  Actual Average Record
Temperature  
Mean Temperature 10 °F -  
Max Temperature 26 °F 36 °F 52 °F (1990)
Min Temperature -5 °F 15 °F -9 °F (2003)
Degree Days  
Heating Degree Days 54    
Moisture  
Dew Point -5 °F    
Average Humidity 47    
Maximum Humidity 84    
Minimum Humidity 22    
Precipitation  
Precipitation 0.00 in - - ()
Sea Level Pressure  
Sea Level Pressure 30.25 in    
Wind  
Wind Speed 4 mph (WSW)    
Max Wind Speed 13 mph    
Max Gust Speed -    
Visibility 10 miles    
Events      
Averages and records for this station are not official NWS values.
T = Trace of Precipitation, MM = Missing Value Source: NWS Daily Summary

Daily Weather History Graph

Daily Weather History Graph

Search for Another Location

Airport or City:

Trip Planner

Search our weather history database for the weather conditions in past years. The results will help you decide how hot, cold, wet, or windy it might be!

Date:

Astronomy

Mar. 04, 2014 Rise Set
Actual Time 6:17 AM EST 5:38 PM EST
Civil Twilight 5:48 AM EST 6:06 PM EST
Nautical Twilight 5:15 AM EST 6:40 PM EST
Astronomical Twilight 4:42 AM EST 7:13 PM EST
Moon 7:53 AM EST (3/4) 9:51 PM EST (3/4)
Length of Visible Light 12h 18m
Length of Day
11h 21m
Waxing Crescent, 14% of the Moon is Illuminated
Mar 4
Waxing Crescent
Mar 8
First Quarter
Mar 16
Full
Mar 23
Last Quarter
Mar 30
New

Hourly Weather History & Observations

Time (EST) Temp. Windchill Dew Point Humidity Pressure Visibility Wind Dir Wind Speed Gust Speed Precip Events Conditions
12:15 AM 1.4 °F - -9.4 °F 61% 30.25 in 10.0 mi Calm Calm - N/A   Clear
12:35 AM 1.4 °F - -9.4 °F 61% 30.25 in 10.0 mi Calm Calm - N/A   Clear
12:55 AM 1.4 °F - -9.4 °F 61% 30.25 in 10.0 mi Calm Calm - N/A   Clear
1:15 AM -0.4 °F -10.4 °F -9.4 °F 66% 30.25 in 10.0 mi SW 4.6 mph - N/A   Clear
1:35 AM -0.4 °F -10.4 °F -9.4 °F 66% 30.25 in 10.0 mi SW 4.6 mph - N/A   Clear
1:55 AM 1.4 °F -11.3 °F -7.6 °F 66% 30.26 in 10.0 mi SW 6.9 mph - N/A   Clear
2:15 AM 3.2 °F -7.8 °F -9.4 °F 56% 30.26 in 10.0 mi SW 5.8 mph - N/A   Clear
2:35 AM 3.2 °F -10.3 °F -9.4 °F 56% 30.26 in 10.0 mi WSW 8.1 mph - N/A   Clear
2:55 AM 3.2 °F -10.3 °F -9.4 °F 56% 30.25 in 10.0 mi SW 8.1 mph - N/A   Clear
3:15 AM 3.2 °F -9.1 °F -9.4 °F 56% 30.25 in 10.0 mi West 6.9 mph - N/A   Clear
3:35 AM 3.2 °F -6.2 °F -11.2 °F 51% 30.26 in 10.0 mi West 4.6 mph - N/A   Clear
3:55 AM 3.2 °F -4.2 °F -11.2 °F 51% 30.26 in 10.0 mi West 3.5 mph - N/A   Clear
4:15 AM 3.2 °F -4.2 °F -11.2 °F 51% 30.27 in 10.0 mi West 3.5 mph - N/A   Clear
4:35 AM -0.4 °F - -13.0 °F 55% 30.26 in 10.0 mi Calm Calm - N/A   Clear
4:55 AM -0.4 °F - -11.2 °F 60% 30.27 in 10.0 mi Calm Calm - N/A   Clear
5:15 AM -0.4 °F - -11.2 °F 60% 30.27 in 10.0 mi Calm Calm - N/A   Clear
5:35 AM -2.2 °F - -11.2 °F 66% 30.28 in 10.0 mi Calm Calm - N/A   Clear
5:55 AM -4.0 °F - -11.2 °F 71% 30.27 in 10.0 mi Calm Calm - N/A   Clear
6:15 AM -2.2 °F - -11.2 °F 66% 30.28 in 10.0 mi Calm Calm - N/A   Clear
6:35 AM -4.0 °F - -11.2 °F 71% 30.29 in 10.0 mi Calm Calm - N/A   Clear
6:55 AM -5.8 °F - -9.4 °F 84% 30.29 in 10.0 mi Calm Calm - N/A   Clear
7:15 AM -2.2 °F - -7.6 °F 78% 30.29 in 10.0 mi Calm Calm - N/A   Clear
7:35 AM 1.4 °F - -5.8 °F 72% 30.30 in 10.0 mi Calm Calm - N/A   Clear
7:55 AM 1.4 °F - -7.6 °F 66% 30.31 in 10.0 mi Calm Calm - N/A   Clear
8:15 AM 3.2 °F -7.8 °F -5.8 °F 66% 30.32 in 10.0 mi WSW 5.8 mph - N/A   Clear
8:35 AM 6.8 °F -2.0 °F -5.8 °F 56% 30.31 in 10.0 mi WSW 4.6 mph - N/A   Clear
8:55 AM 8.6 °F 0.1 °F -5.8 °F 52% 30.31 in 10.0 mi WSW 4.6 mph - N/A   Clear
9:15 AM 10.4 °F -0.4 °F -5.8 °F 48% 30.31 in 10.0 mi WSW 6.9 mph - N/A   Clear
9:35 AM 12.2 °F 1.7 °F -5.8 °F 45% 30.31 in 10.0 mi SW 6.9 mph - N/A   Clear
9:55 AM 14.0 °F 2.9 °F -7.6 °F 38% 30.31 in 10.0 mi WSW 8.1 mph - N/A   Clear
10:15 AM 15.8 °F 4.2 °F -7.6 °F 35% 30.30 in 10.0 mi SSW 9.2 mph - N/A   Clear
10:35 AM 15.8 °F 3.4 °F -5.8 °F 38% 30.30 in 10.0 mi WSW 10.4 mph - N/A   Clear
10:55 AM 15.8 °F 5.1 °F -5.8 °F 38% 30.28 in 10.0 mi WSW 8.1 mph - N/A   Clear
11:15 AM 17.6 °F 9.3 °F -7.6 °F 32% 30.29 in 10.0 mi SSW 5.8 mph - N/A   Clear
11:35 AM 17.6 °F 10.7 °F -7.6 °F 32% 30.28 in 10.0 mi SW 4.6 mph - N/A   Clear
11:55 AM 17.6 °F 9.3 °F -5.8 °F 35% 30.27 in 10.0 mi WSW 5.8 mph - N/A   Clear
12:15 PM 19.4 °F 9.5 °F -5.8 °F 33% 30.26 in 10.0 mi SW 8.1 mph - N/A   Clear
12:35 PM 19.4 °F 8.6 °F -5.8 °F 33% 30.25 in 10.0 mi WSW 9.2 mph - N/A   Clear
12:55 PM 19.4 °F 6.6 °F -4.0 °F 36% 30.24 in 10.0 mi WSW 12.7 mph - N/A   Clear
1:15 PM 21.2 °F 8.9 °F -2.2 °F 36% 30.22 in 10.0 mi West 12.7 mph - N/A   Clear
1:35 PM 21.2 °F 10.1 °F -4.0 °F 33% 30.22 in 10.0 mi WSW 10.4 mph - N/A   Clear
1:55 PM 21.2 °F 10.9 °F -4.0 °F 33% 30.22 in 10.0 mi SW 9.2 mph - N/A   Clear
2:15 PM 23.0 °F 13.1 °F -2.2 °F 33% 30.21 in 10.0 mi WSW 9.2 mph - N/A   Clear
2:35 PM 24.8 °F 17.9 °F -4.0 °F 28% 30.20 in 10.0 mi SW 5.8 mph - N/A   Clear
2:55 PM 24.8 °F 16.9 °F -4.0 °F 28% 30.20 in 10.0 mi WSW 6.9 mph - N/A   Clear
3:15 PM 26.6 °F 19.1 °F -4.0 °F 26% 30.19 in 10.0 mi West 6.9 mph - N/A   Clear
3:35 PM 26.6 °F 18.2 °F -5.8 °F 24% 30.19 in 10.0 mi WSW 8.1 mph - N/A   Clear
3:55 PM 26.6 °F 21.2 °F -4.0 °F 26% 30.19 in 10.0 mi WSW 4.6 mph - N/A   Clear
4:15 PM 26.6 °F 20.0 °F -5.8 °F 24% 30.19 in 10.0 mi WNW 5.8 mph - N/A   Clear
4:35 PM 26.6 °F 19.1 °F -7.6 °F 22% 30.19 in 10.0 mi West 6.9 mph - N/A   Clear
4:55 PM 26.6 °F 18.2 °F -7.6 °F 22% 30.19 in 10.0 mi WNW 8.1 mph - N/A   Clear
5:15 PM 26.6 °F 20.0 °F -7.6 °F 22% 30.20 in 10.0 mi WNW 5.8 mph - N/A   Clear
5:35 PM 26.6 °F 20.0 °F -7.6 °F 22% 30.20 in 10.0 mi WNW 5.8 mph - N/A   Clear
5:55 PM 24.8 °F 19.1 °F -7.6 °F 24% 30.21 in 10.0 mi West 4.6 mph - N/A   Clear
6:15 PM 24.8 °F 16.9 °F -5.8 °F 26% 30.21 in 10.0 mi WNW 6.9 mph - N/A   Clear
6:35 PM 24.8 °F 19.1 °F -4.0 °F 28% 30.22 in 10.0 mi WNW 4.6 mph - N/A   Clear
6:55 PM 24.8 °F 20.5 °F -2.2 °F 31% 30.22 in 10.0 mi NW 3.5 mph - N/A   Clear
7:15 PM 24.8 °F 19.1 °F -2.2 °F 31% 30.22 in 10.0 mi West 4.6 mph - N/A   Clear
7:35 PM 23.0 °F 17.0 °F 1.4 °F 39% 30.22 in 10.0 mi West 4.6 mph - N/A   Clear
7:55 PM 23.0 °F 18.4 °F 3.2 °F 43% 30.22 in 10.0 mi WSW 3.5 mph - N/A   Clear
8:15 PM 21.2 °F 16.4 °F 3.2 °F 46% 30.22 in 10.0 mi West 3.5 mph - N/A   Clear
8:35 PM 21.2 °F 14.9 °F 5.0 °F 50% 30.22 in 10.0 mi WNW 4.6 mph - N/A   Clear
8:55 PM 21.2 °F - 5.0 °F 50% 30.23 in 10.0 mi Calm Calm - N/A   Clear
9:15 PM 21.2 °F - 5.0 °F 50% 30.23 in 10.0 mi Calm Calm - N/A   Clear
9:35 PM 21.2 °F 16.4 °F 5.0 °F 50% 30.23 in 10.0 mi WNW 3.5 mph - N/A   Clear
9:55 PM 19.4 °F - 6.8 °F 58% 30.23 in 10.0 mi Calm Calm - N/A   Clear
10:15 PM 17.6 °F - 5.0 °F 58% 30.23 in 10.0 mi Calm Calm - N/A   Scattered Clouds
10:35 PM 19.4 °F - 8.6 °F 63% 30.23 in 10.0 mi Calm Calm - N/A   Mostly Cloudy
10:55 PM 19.4 °F - 8.6 °F 63% 30.24 in 10.0 mi Calm Calm - N/A   Partly Cloudy
11:15 PM 19.4 °F - 8.6 °F 63% 30.23 in 10.0 mi Calm Calm - N/A   Scattered Clouds
11:35 PM 19.4 °F - 8.6 °F 63% 30.23 in 10.0 mi Calm Calm - N/A   Mostly Cloudy
11:55 PM 17.6 °F 10.7 °F 10.4 °F 73% 30.23 in 10.0 mi SW 4.6 mph - N/A   Mostly Cloudy